Weather History for Saginaw, MI

Change the Weather History Date:

Sunday, November 6, 2011

  Actual Average Record
Temperature  
Mean Temperature 49 °F 42 °F  
Max Temperature 64 °F 51 °F 72 °F (2008)
Min Temperature 34 °F 34 °F 26 °F (2010)
Degree Days  
Heating Degree Days 16    
Month to date heating degree days  
Since 1 July heating degree days  
Cooling Degree Days 0    
Month to date cooling degree days  
Year to date cooling degree days  
Moisture  
Dew Point 37 °F    
Average Humidity 60    
Maximum Humidity 79    
Minimum Humidity 46    
Precipitation  
Precipitation 0.00 in 0.09 in 0.31 in (1997)
Month to date precipitation 0.56  
Year to date precipitation 27.54  
Snow  
Snow 0.00 in - - ()
Month to date snowfall  
Since 1 July snowfall  
Since 1 September snowfall  
Snow Depth -    
Sea Level Pressure  
Sea Level Pressure 30.12 in    
Wind  
Wind Speed 10 mph (South)    
Max Wind Speed 20 mph    
Max Gust Speed 28 mph    
Visibility 10 miles    
Events      
T = Trace of Precipitation, MM = Missing Value Source: NWS Daily Summary

Daily Weather History Graph

Daily Weather History Graph

Search for Another Location

Airport:

Trip Planner

Search our weather history database for the weather conditions in past years. The results will help you decide how hot, cold, wet, or windy it might be!

Date:

Astronomy

Nov. 06, 2011 Rise Set
Actual Time 7:18 AM EST 5:21 PM EST
Civil Twilight 6:47 AM EST 5:51 PM EST
Nautical Twilight 6:13 AM EST 6:25 PM EST
Astronomical Twilight 5:40 AM EST 6:58 PM EST
Moon 3:10 PM EST (11/6) 3:17 AM EST (11/6)
Length of Visible Light 11h 03m
Length of Day
10h 03m
Waxing Gibbous, 85% of the Moon is Illuminated
Nov 6
Waxing Gibbous
Nov 10
Full
Nov 18
Last Quarter
Nov 25
New
Dec 2
First Quarter

Hourly Weather History & Observations

Time (EST) Temp. Windchill Dew Point Humidity Pressure Visibility Wind Dir Wind Speed Gust Speed Precip Events Conditions
12:53 AM 36.0 °F 31.1 °F 27.0 °F 70% 30.21 in 10.0 mi SE 5.8 mph - N/A   Clear
1:53 AM 34.0 °F 28.0 °F 27.0 °F 75% 30.19 in 10.0 mi SE 6.9 mph - N/A   Clear
1:53 AM 34.0 °F 28.8 °F 28.0 °F 79% 30.18 in 10.0 mi SSE 5.8 mph - N/A   Clear
2:53 AM 37.9 °F 32.7 °F 30.9 °F 76% 30.18 in 10.0 mi South 6.9 mph - N/A   Clear
3:53 AM 37.9 °F 32.7 °F 30.9 °F 76% 30.19 in 10.0 mi South 6.9 mph - N/A   Clear
4:53 AM 39.0 °F 32.8 °F 30.0 °F 70% 30.19 in 10.0 mi South 9.2 mph - N/A   Clear
5:53 AM 39.9 °F 33.9 °F 30.0 °F 68% 30.19 in 10.0 mi South 9.2 mph - N/A   Clear
6:53 AM 41.0 °F 34.7 °F 30.0 °F 65% 30.17 in 10.0 mi South 10.4 mph - N/A   Clear
7:53 AM 42.1 °F 35.7 °F 30.9 °F 65% 30.18 in 10.0 mi South 11.5 mph - N/A   Clear
8:53 AM 45.0 °F 39.3 °F 33.1 °F 63% 30.17 in 10.0 mi South 11.5 mph - N/A   Clear
9:53 AM 50.0 °F - 37.0 °F 61% 30.16 in 10.0 mi South 10.4 mph - N/A   Clear
10:53 AM 55.9 °F - 39.9 °F 55% 30.15 in 10.0 mi South 11.5 mph - N/A   Clear
11:53 AM 59.0 °F - 42.1 °F 53% 30.12 in 10.0 mi South 17.3 mph 24.2 mph N/A   Clear
12:53 PM 62.1 °F - 44.1 °F 52% 30.09 in 10.0 mi SSW 17.3 mph 25.3 mph N/A   Clear
1:53 PM 63.0 °F - 44.1 °F 50% 30.06 in 10.0 mi SSW 19.6 mph 27.6 mph N/A   Clear
2:53 PM 64.0 °F - 43.0 °F 46% 30.03 in 10.0 mi South 16.1 mph 27.6 mph N/A   Clear
3:53 PM 63.0 °F - 42.1 °F 46% 30.03 in 10.0 mi SSW 16.1 mph 25.3 mph N/A   Clear
4:53 PM 62.1 °F - 42.1 °F 48% 30.05 in 10.0 mi SSW 15.0 mph - N/A   Clear
5:53 PM 61.0 °F - 42.1 °F 50% 30.06 in 10.0 mi SSW 12.7 mph - N/A   Overcast
6:53 PM 60.1 °F - 43.0 °F 53% 30.05 in 10.0 mi SSW 11.5 mph - N/A   Overcast
7:53 PM 59.0 °F - 43.0 °F 55% 30.06 in 10.0 mi SSW 11.5 mph - N/A   Overcast
8:53 PM 60.1 °F - 43.0 °F 53% 30.06 in 10.0 mi SSW 11.5 mph - N/A   Overcast
9:53 PM 59.0 °F - 42.8 °F 55% 30.07 in 10.0 mi SSW 13.8 mph 25.3 mph N/A   Overcast
10:53 PM 59.0 °F - 43.0 °F 55% 30.09 in 10.0 mi SSW 13.8 mph 20.7 mph N/A   Overcast